STARLINK-31112 (58680 NORAD) Tracking and Keplerian Element Data

This shows tracking and keplerian element data for the satellite.

Feedback or suggestion? Click here.




ElementValue
Catalog58680
NameSTARLINK-31112
Epoch Orbit338
Epoch Day12.91667824
Epoch Year2024
RAAN204.0916
Inclination42.9998
Eccentricity0.0002035
Argument of Perigee274.6472
Mean Anonmoly324.8074
Mean Motion15.74078818
Decay Rate-0.01609526
L11 58680U 23211P 24012.91667824 -.01609526 00000+0 -12278-1 0 9999
L22 58680 42.9998 204.0916 0002035 274.6472 324.8074 15.74078818 3385



Live tracking and technical data element details for STARLINK-31112 (NORAD 58680). STARLINK-31112 can be tracked NOW for your location showing map with azimuth and elevation plus other details from your city location.







IsCatalogInMostPopularTable: catalog: 58680, numindb: 22
Update: records affected: 1



GetName: 58680 STARLINK-31112

Hit Count: updated at: Wed, 17 Apr 2024 03:28:05 GMT